World > North America > United States > Texas

Montague, Texas Regional Weather

Lat: 33.66N, Lon: 97.72W
Wx Zone: TXZ091Web Search

Helpful Tip: Abbreviated, 7 Day, 14 Day Forecasts. There is a weather forecast for every taste.

Feedback


°F Click to change Montague hourly weather to Imperial units.Click to change Montague hourly weather to Metric units. °C
Montague Weather Map
UTC Time: 4/11/2021, 04:06
Your Time:

Montague, TX Regional Weather

Expires:202104110500;;364179
ASUS44 KFWD 110403
RWRTX 
NORTH TEXAS HOURLY WEATHER ROUNDUP
NATIONAL WEATHER SERVICE FORT WORTH TX
1100 PM CDT SAT APR 10 2021

NOTE: "FAIR" INDICATES FEW OR NO CLOUDS BELOW 12,000 FEET WITH NO
SIGNIFICANT WEATHER AND/OR OBSTRUCTIONS TO VISIBILITY.


TXZ091>094-102>105-117-120-121-131>134-110500-
NORTH CENTRAL TEXAS
  
CITY           SKY/WX    TMP DP  RH WIND       PRES   REMARKS
SHRMAN/DENISON FAIR      53  41  63 CALM      29.84S                  
BOWIE          FAIR      46  37  70 CALM      29.83F                  
BRIDGEPORT     FAIR      46  36  68 SW3       29.85S                  
DECATUR        FAIR      62  29  28 CALM      29.83F                  
DENTON         FAIR      50  39  66 CALM      29.83S                  
MCKINNEY       FAIR      52  38  58 CALM      29.83R                  
BONHAM         FAIR      46  44  91 W5        29.83R                  
GREENVILLE     FAIR      47  43  86 CALM      29.82S                  
ROCKWALL       FAIR      57  38  48 CALM      29.83S                  
TERRELL        FAIR      51  45  79 CALM      29.83R                  
WAXAHACHIE     FAIR      51  44  76 NW3       29.86R                  
CLEBURNE       CLEAR     55  37  50 CALM      29.85S                  
GRANBURY       FAIR      53  39  60 CALM      29.86S                  
$$


SKY/WX - Weather  TMP - Temperature  DP - Dew Point  RH - Relative Humidity
WIND - Wind Direction/Speed PRES - Barometric Pressure VSB - Visibility
WCI - Wind Chill Index E13G22 Wind - East Wind 13 mph/Gusts of 22 mph